This is the latest recevied weather packets stored in our database for station/object n3uvr. If no packets are shown the sender has not sent any weather packets the latest 10 day(s).
| Time | Temp. | Humidity | Pressure | Rain* | Wind** | Luminosity | Snow |
|---|---|---|---|---|---|---|---|
| 1788509234 | 21.11° C | 81% | 1011.6 hPa | 0 mm | - | 0 W/m² | - |
| 1788508651 | 21.11° C | 81% | 1011.5 hPa | 0 mm | - | 0 W/m² | - |
| 1788508049 | 21.11° C | 81% | 1011.4 hPa | 0 mm | - | 0 W/m² | - |
| 1788506815 | 21.11° C | 82% | 1011.3 hPa | 0.25 mm | - | 0 W/m² | - |
| 1788506202 | 21.11° C | 82% | 1011.1 hPa | 0.25 mm | - | 0 W/m² | - |
| 1788505623 | 21.11° C | 82% | 1011.2 hPa | 0.25 mm | - | 0 W/m² | - |
| 1788505026 | 21.11° C | 82% | 1011.2 hPa | 0.25 mm | - | 0 W/m² | - |
| 1788503796 | 21.11° C | 83% | 1011.6 hPa | 0.25 mm | - | 0 W/m² | - |
| 1788503200 | 21.11° C | 83% | 1011.6 hPa | 0 mm | - | 0 W/m² | - |
| 1788502601 | 21.11° C | 83% | 1011.8 hPa | 0.76 mm | - | 0 W/m² | - |
| 1788502004 | 21.11° C | 83% | 1012 hPa | 1.78 mm | - | 0 W/m² | - |
| 1788500832 | 21.67° C | 84% | 1012 hPa | 4.57 mm | - | 0 W/m² | - |
| 1788500217 | 21.67° C | 84% | 1011.8 hPa | 4.57 mm | - | 0 W/m² | - |
| 1788497831 | 22.22° C | 85% | 1012 hPa | 0 mm | - | 0 W/m² | - |
| 1788497218 | 22.22° C | 85% | 1011.7 hPa | 0 mm | - | 0 W/m² | - |
| 1788496629 | 22.78° C | 85% | 1012.1 hPa | 0 mm | - | 0 W/m² | - |
| 1788496031 | 22.78° C | 84% | 1012.3 hPa | 0 mm | - | 0 W/m² | - |
| 1788494817 | 22.78° C | 84% | 1012.7 hPa | 0.25 mm | - | 0 W/m² | - |
| 1788494221 | 22.78° C | 85% | 1012.9 hPa | 0.25 mm | - | 0 W/m² | - |
| 1788493616 | 22.78° C | 86% | 1012.9 hPa | 0.25 mm | - | 0 W/m² | - |
| 1788493006 | 22.78° C | 86% | 1012.3 hPa | 0.25 mm | - | 0 W/m² | - |
| 1788492382 | 23.33° C | 85% | 1012.2 hPa | 0.25 mm | - | 0 W/m² | - |
| 1788491775 | 23.33° C | 86% | 1012 hPa | 0.25 mm | - | 0 W/m² | - |
| 1788490602 | 23.33° C | 86% | 1012.3 hPa | 0 mm | - | 0 W/m² | - |
| 1788489394 | 23.33° C | 86% | 1012.9 hPa | 0 mm | - | 0 W/m² | - |
* Rain latest hour (hover to see other rain measurements)
** Current wind speed in m/s (hover to see current wind gust speed)